Time,TemperatureF,DewpointF,PressureIn,WindDirection,WindDirectionDegrees,WindSpeedMPH,WindSpeedGustMPH,Humidity,HourlyPrecipIn,Conditions,Clouds,dailyrainin,SoftwareType,DateUTC
2013-06-07 00:03:00,49.7,44.4,29.72,WSW,241,0.0,0.0,82,0.00,,,0.02,LWC V2.00 B2112,2013-06-07 08:03:00,
2013-06-07 00:08:00,49.4,44.5,29.72,WSW,241,0.0,0.0,83,0.00,,,0.02,LWC V2.00 B2112,2013-06-07 08:08:00,
2013-06-07 00:13:00,49.3,44.4,29.72,WSW,241,0.0,0.0,83,0.00,,,0.02,LWC V2.00 B2112,2013-06-07 08:13:00,
2013-06-07 00:18:00,49.2,44.3,29.72,WSW,241,0.0,0.0,83,0.00,,,0.02,LWC V2.00 B2112,2013-06-07 08:18:00,
2013-06-07 00:23:00,49.0,44.1,29.72,WSW,241,0.0,0.0,83,0.00,,,0.02,LWC V2.00 B2112,2013-06-07 08:23:00,
2013-06-07 00:28:00,48.8,43.9,29.72,WSW,241,0.0,0.0,83,0.00,,,0.02,LWC V2.00 B2112,2013-06-07 08:28:00,
2013-06-07 00:33:00,48.6,44.0,29.72,WSW,241,0.0,0.0,84,0.00,,,0.02,LWC V2.00 B2112,2013-06-07 08:33:00,
2013-06-07 00:38:00,48.2,43.6,29.72,WSW,241,0.0,0.0,84,0.00,,,0.02,LWC V2.00 B2112,2013-06-07 08:38:00,
2013-06-07 00:43:00,48.1,43.8,29.72,WSW,241,0.0,0.0,85,0.00,,,0.02,LWC V2.00 B2112,2013-06-07 08:43:00,
2013-06-07 00:48:00,48.0,43.7,29.72,WSW,241,0.0,0.0,85,0.00,,,0.02,LWC V2.00 B2112,2013-06-07 08:48:00,
2013-06-07 00:53:00,47.8,43.8,29.72,WSW,241,0.0,0.0,86,0.00,,,0.02,LWC V2.00 B2112,2013-06-07 08:53:00,
2013-06-07 00:58:00,47.5,43.8,29.72,WSW,241,0.0,0.0,87,0.00,,,0.02,LWC V2.00 B2112,2013-06-07 08:58:00,
2013-06-07 01:03:00,47.3,43.9,29.72,WSW,241,0.0,0.0,88,0.00,,,0.02,LWC V2.00 B2112,2013-06-07 09:03:00,
2013-06-07 01:08:00,47.3,43.3,29.72,WSW,241,0.0,0.0,86,0.00,,,0.02,LWC V2.00 B2112,2013-06-07 09:08:00,
2013-06-07 01:13:00,47.3,43.3,29.72,WSW,241,0.0,0.0,86,0.00,,,0.02,LWC V2.00 B2112,2013-06-07 09:13:00,
2013-06-07 01:18:00,47.2,43.5,29.72,WSW,241,0.0,0.0,87,0.00,,,0.02,LWC V2.00 B2112,2013-06-07 09:18:00,
2013-06-07 01:23:00,47.1,43.7,29.73,WSW,241,0.0,0.0,88,0.00,,,0.00,LWC V2.00 B2112,2013-06-07 09:23:00,
2013-06-07 01:28:00,46.8,43.4,29.73,WSW,241,0.0,0.0,88,0.00,,,0.00,LWC V2.00 B2112,2013-06-07 09:28:00,
2013-06-07 01:33:00,46.8,43.4,29.73,WSW,241,0.0,0.0,88,0.00,,,0.00,LWC V2.00 B2112,2013-06-07 09:33:00,
2013-06-07 01:38:00,46.7,43.3,29.73,WSW,241,0.0,0.0,88,0.00,,,0.00,LWC V2.00 B2112,2013-06-07 09:38:00,
2013-06-07 01:43:00,46.7,43.6,29.73,WSW,241,0.0,0.0,89,0.00,,,0.00,LWC V2.00 B2112,2013-06-07 09:43:00,
2013-06-07 01:48:00,46.4,43.3,29.73,WSW,241,0.0,0.0,89,0.00,,,0.00,LWC V2.00 B2112,2013-06-07 09:48:00,
2013-06-07 01:53:00,46.4,43.3,29.73,WSW,241,0.0,0.0,89,0.00,,,0.00,LWC V2.00 B2112,2013-06-07 09:53:00,
2013-06-07 01:58:00,46.4,43.3,29.73,WSW,241,0.0,0.0,89,0.00,,,0.00,LWC V2.00 B2112,2013-06-07 09:58:00,
2013-06-07 02:03:00,46.5,43.1,29.73,WSW,241,0.0,0.0,88,0.00,,,0.00,LWC V2.00 B2112,2013-06-07 10:03:00,
2013-06-07 02:08:00,46.4,43.0,29.73,WSW,241,0.0,0.0,88,0.00,,,0.00,LWC V2.00 B2112,2013-06-07 10:08:00,
2013-06-07 02:13:00,46.2,43.1,29.73,WSW,242,0.0,0.0,89,0.00,,,0.00,LWC V2.00 B2112,2013-06-07 10:13:00,
2013-06-07 02:18:00,46.0,42.9,29.73,WSW,242,0.0,0.0,89,0.00,,,0.00,LWC V2.00 B2112,2013-06-07 10:18:00,
2013-06-07 02:23:00,45.7,42.9,29.73,WSW,241,0.0,0.0,90,0.00,,,0.00,LWC V2.00 B2112,2013-06-07 10:23:00,
2013-06-07 02:28:00,45.5,42.7,29.73,WSW,241,0.0,0.0,90,0.00,,,0.00,LWC V2.00 B2112,2013-06-07 10:28:00,
2013-06-07 02:33:00,45.4,42.6,29.74,WSW,241,0.0,0.0,90,0.00,,,0.00,LWC V2.00 B2112,2013-06-07 10:33:00,
2013-06-07 02:38:00,45.4,42.6,29.74,WSW,241,0.0,0.0,90,0.00,,,0.00,LWC V2.00 B2112,2013-06-07 10:38:00,
2013-06-07 02:43:00,45.4,42.6,29.74,WSW,241,0.0,0.0,90,0.00,,,0.00,LWC V2.00 B2112,2013-06-07 10:43:00,
2013-06-07 02:48:00,45.5,42.7,29.74,WSW,241,0.0,0.0,90,0.00,,,0.00,LWC V2.00 B2112,2013-06-07 10:48:00,
2013-06-07 02:53:00,45.3,42.5,29.74,WSW,241,0.0,0.0,90,0.00,,,0.00,LWC V2.00 B2112,2013-06-07 10:53:00,
2013-06-07 02:58:00,45.3,42.5,29.74,WSW,241,0.0,0.0,90,0.00,,,0.00,LWC V2.00 B2112,2013-06-07 10:58:00,
2013-06-07 03:03:00,45.4,42.6,29.74,WSW,241,0.0,0.0,90,0.00,,,0.00,LWC V2.00 B2112,2013-06-07 11:03:00,
2013-06-07 03:08:00,45.3,42.5,29.74,WSW,241,0.0,0.0,90,0.00,,,0.00,LWC V2.00 B2112,2013-06-07 11:08:00,
2013-06-07 03:13:00,45.2,42.4,29.74,WSW,241,0.0,0.0,90,0.00,,,0.00,LWC V2.00 B2112,2013-06-07 11:13:00,
2013-06-07 03:18:00,45.0,42.2,29.74,WSW,241,0.0,0.0,90,0.00,,,0.00,LWC V2.00 B2112,2013-06-07 11:18:00,
2013-06-07 03:23:00,44.8,42.3,29.74,WSW,241,0.0,0.0,91,0.00,,,0.00,LWC V2.00 B2112,2013-06-07 11:23:00,
2013-06-07 03:28:00,44.7,42.2,29.74,WSW,241,0.0,0.0,91,0.00,,,0.00,LWC V2.00 B2112,2013-06-07 11:28:00,
2013-06-07 03:33:00,44.6,42.1,29.75,WSW,242,0.0,0.0,91,0.00,,,0.00,LWC V2.00 B2112,2013-06-07 11:33:00,
2013-06-07 03:38:00,44.6,42.1,29.75,WSW,241,0.0,0.0,91,0.00,,,0.00,LWC V2.00 B2112,2013-06-07 11:38:00,
2013-06-07 03:43:00,44.7,42.2,29.75,WSW,241,0.0,0.0,91,0.00,,,0.00,LWC V2.00 B2112,2013-06-07 11:43:00,
2013-06-07 03:48:00,44.8,42.6,29.75,WSW,241,0.0,0.0,92,0.00,,,0.00,LWC V2.00 B2112,2013-06-07 11:48:00,
2013-06-07 03:53:00,45.0,42.8,29.75,WSW,241,0.0,0.0,92,0.00,,,0.00,LWC V2.00 B2112,2013-06-07 11:53:00,
2013-06-07 03:58:00,45.0,42.5,29.75,WSW,241,0.0,0.0,91,0.00,,,0.00,LWC V2.00 B2112,2013-06-07 11:58:00,
2013-06-07 04:03:00,45.1,42.9,29.75,WSW,241,0.0,0.0,92,0.00,,,0.00,LWC V2.00 B2112,2013-06-07 12:03:00,
2013-06-07 04:08:00,44.9,42.4,29.75,WSW,241,0.0,0.0,91,0.00,,,0.00,LWC V2.00 B2112,2013-06-07 12:08:00,
2013-06-07 04:13:00,44.9,42.7,29.75,WSW,241,0.0,0.0,92,0.00,,,0.00,LWC V2.00 B2112,2013-06-07 12:13:00,
2013-06-07 04:18:00,45.0,42.8,29.75,WSW,241,0.0,0.0,92,0.00,,,0.00,LWC V2.00 B2112,2013-06-07 12:18:00,
2013-06-07 04:23:00,45.2,43.0,29.75,WSW,241,0.0,0.0,92,0.00,,,0.00,LWC V2.00 B2112,2013-06-07 12:23:00,
2013-06-07 04:28:00,45.3,43.1,29.75,WSW,242,0.0,0.0,92,0.00,,,0.00,LWC V2.00 B2112,2013-06-07 12:28:00,
2013-06-07 04:33:00,45.3,43.1,29.75,WSW,241,0.0,0.0,92,0.00,,,0.00,LWC V2.00 B2112,2013-06-07 12:33:00,
2013-06-07 04:38:00,45.3,43.1,29.75,WSW,241,0.0,0.0,92,0.00,,,0.00,LWC V2.00 B2112,2013-06-07 12:38:00,
2013-06-07 04:43:00,45.4,43.5,29.75,WSW,241,0.0,0.0,93,0.00,,,0.00,LWC V2.00 B2112,2013-06-07 12:43:00,
2013-06-07 04:48:00,45.5,43.6,29.75,WSW,241,0.0,0.0,93,0.00,,,0.00,LWC V2.00 B2112,2013-06-07 12:48:00,
2013-06-07 04:53:00,45.6,43.7,29.75,WSW,242,0.0,0.0,93,0.00,,,0.00,LWC V2.00 B2112,2013-06-07 12:53:00,
2013-06-07 04:58:00,45.5,43.3,29.75,WSW,241,0.0,0.0,92,0.00,,,0.00,LWC V2.00 B2112,2013-06-07 12:58:00,
2013-06-07 05:03:00,45.4,43.2,29.76,WSW,241,0.0,0.0,92,0.00,,,0.00,LWC V2.00 B2112,2013-06-07 13:03:00,
2013-06-07 05:08:00,45.4,43.2,29.76,WSW,241,0.0,0.0,92,0.00,,,0.00,LWC V2.00 B2112,2013-06-07 13:08:00,
2013-06-07 05:13:00,45.6,43.4,29.76,WSW,241,0.0,0.0,92,0.00,,,0.00,LWC V2.00 B2112,2013-06-07 13:13:00,
2013-06-07 05:18:00,45.7,43.5,29.76,WSW,241,0.0,0.0,92,0.00,,,0.00,LWC V2.00 B2112,2013-06-07 13:18:00,
2013-06-07 05:23:00,45.9,44.0,29.76,WSW,241,0.0,0.0,93,0.00,,,0.00,LWC V2.00 B2112,2013-06-07 13:23:00,
2013-06-07 05:28:00,46.2,44.0,29.76,WSW,241,0.0,0.0,92,0.00,,,0.00,LWC V2.00 B2112,2013-06-07 13:28:00,
2013-06-07 05:33:00,46.4,43.9,29.76,WSW,241,0.0,0.0,91,0.00,,,0.00,LWC V2.00 B2112,2013-06-07 13:33:00,
2013-06-07 05:38:00,46.7,44.2,29.76,WSW,241,0.0,0.0,91,0.00,,,0.00,LWC V2.00 B2112,2013-06-07 13:38:00,
2013-06-07 05:43:00,47.0,44.2,29.77,WSW,241,0.0,0.0,90,0.00,,,0.00,LWC V2.00 B2112,2013-06-07 13:43:00,
2013-06-07 05:48:00,47.3,44.2,29.77,WSW,241,0.0,0.0,89,0.00,,,0.00,LWC V2.00 B2112,2013-06-07 13:48:00,
2013-06-07 05:53:00,47.5,44.1,29.77,WSW,242,0.0,0.0,88,0.00,,,0.00,LWC V2.00 B2112,2013-06-07 13:53:00,
2013-06-07 05:58:00,47.8,44.7,29.77,WSW,241,0.0,0.0,89,0.00,,,0.00,LWC V2.00 B2112,2013-06-07 13:58:00,
2013-06-07 06:03:00,48.0,44.9,29.77,WSW,241,0.0,0.0,89,0.00,,,0.00,LWC V2.00 B2112,2013-06-07 14:03:00,
2013-06-07 06:08:00,48.2,45.1,29.77,WSW,241,0.0,0.0,89,0.00,,,0.00,LWC V2.00 B2112,2013-06-07 14:08:00,
2013-06-07 06:13:00,48.3,45.5,29.77,WSW,241,0.0,0.0,90,0.00,,,0.00,LWC V2.00 B2112,2013-06-07 14:13:00,
2013-06-07 06:18:00,48.3,45.5,29.77,WSW,241,0.0,0.0,90,0.00,,,0.00,LWC V2.00 B2112,2013-06-07 14:18:00,
2013-06-07 06:23:00,48.1,45.0,29.77,WSW,241,0.0,0.0,89,0.00,,,0.00,LWC V2.00 B2112,2013-06-07 14:23:00,
2013-06-07 06:28:00,47.7,44.6,29.77,WSW,241,0.0,0.0,89,0.00,,,0.00,LWC V2.00 B2112,2013-06-07 14:28:00,
2013-06-07 06:33:00,47.7,44.9,29.77,WSW,241,0.0,0.0,90,0.00,,,0.00,LWC V2.00 B2112,2013-06-07 14:33:00,
2013-06-07 06:38:00,47.8,45.3,29.77,WSW,241,0.0,0.0,91,0.00,,,0.00,LWC V2.00 B2112,2013-06-07 14:38:00,
2013-06-07 06:43:00,47.9,45.4,29.77,WSW,241,0.0,0.0,91,0.00,,,0.00,LWC V2.00 B2112,2013-06-07 14:43:00,
2013-06-07 06:48:00,48.0,45.5,29.77,WSW,241,0.0,0.0,91,0.00,,,0.00,LWC V2.00 B2112,2013-06-07 14:48:00,
2013-06-07 06:53:00,48.1,45.6,29.77,WSW,241,0.0,0.0,91,0.00,,,0.00,LWC V2.00 B2112,2013-06-07 14:53:00,
2013-06-07 06:58:00,48.3,45.8,29.77,WSW,241,0.0,0.0,91,0.00,,,0.00,LWC V2.00 B2112,2013-06-07 14:58:00,
2013-06-07 07:03:00,48.5,46.0,29.78,WSW,241,0.0,0.0,91,0.00,,,0.00,LWC V2.00 B2112,2013-06-07 15:03:00,
2013-06-07 07:08:00,48.7,45.9,29.78,WSW,241,0.0,0.0,90,0.00,,,0.00,LWC V2.00 B2112,2013-06-07 15:08:00,
2013-06-07 07:13:00,49.0,46.5,29.78,WSW,241,0.0,0.0,91,0.00,,,0.00,LWC V2.00 B2112,2013-06-07 15:13:00,
2013-06-07 07:18:00,49.2,46.4,29.77,WSW,241,0.0,0.0,90,0.00,,,0.00,LWC V2.00 B2112,2013-06-07 15:18:00,
2013-06-07 07:23:00,49.3,46.8,29.78,WSW,241,0.0,0.0,91,0.00,,,0.00,LWC V2.00 B2112,2013-06-07 15:23:00,
2013-06-07 07:28:00,49.6,47.1,29.77,WSW,241,0.0,0.0,91,0.00,,,0.00,LWC V2.00 B2112,2013-06-07 15:28:00,
2013-06-07 07:33:00,49.9,47.1,29.77,WSW,241,0.0,0.0,90,0.00,,,0.00,LWC V2.00 B2112,2013-06-07 15:33:00,
2013-06-07 07:38:00,50.3,47.5,29.77,WSW,241,0.0,0.0,90,0.00,,,0.00,LWC V2.00 B2112,2013-06-07 15:38:00,
2013-06-07 07:43:00,50.8,48.0,29.77,WSW,241,0.0,0.0,90,0.00,,,0.00,LWC V2.00 B2112,2013-06-07 15:43:00,
2013-06-07 07:48:00,51.4,48.3,29.78,WSW,241,0.0,0.0,89,0.00,,,0.00,LWC V2.00 B2112,2013-06-07 15:48:00,
2013-06-07 07:53:00,52.2,48.1,29.78,WSW,241,0.0,0.0,86,0.00,,,0.00,LWC V2.00 B2112,2013-06-07 15:53:00,
2013-06-07 07:58:00,53.2,48.2,29.77,SE,134,0.0,0.0,83,0.00,,,0.00,LWC V2.00 B2112,2013-06-07 15:58:00,
2013-06-07 08:03:00,54.5,46.4,29.78,East,101,0.0,1.0,74,0.00,,,0.00,LWC V2.00 B2112,2013-06-07 16:03:00,
2013-06-07 08:08:00,55.3,47.2,29.77,WNW,286,0.0,0.0,74,0.00,,,0.00,LWC V2.00 B2112,2013-06-07 16:08:00,
2013-06-07 08:13:00,55.9,46.6,29.77,WNW,297,0.0,2.0,71,0.00,,,0.00,LWC V2.00 B2112,2013-06-07 16:13:00,
2013-06-07 08:18:00,56.7,47.0,29.77,SSW,206,1.0,2.0,70,0.00,,,0.00,LWC V2.00 B2112,2013-06-07 16:18:00,
2013-06-07 08:23:00,57.1,46.2,29.77,ESE,107,2.0,2.0,67,0.00,,,0.00,LWC V2.00 B2112,2013-06-07 16:23:00,
2013-06-07 08:28:00,57.2,45.9,29.77,SE,131,1.0,1.0,66,0.00,,,0.00,LWC V2.00 B2112,2013-06-07 16:28:00,
2013-06-07 08:33:00,57.2,46.7,29.78,SE,131,0.0,0.0,68,0.00,,,0.00,LWC V2.00 B2112,2013-06-07 16:33:00,
2013-06-07 08:38:00,57.2,46.3,29.78,SE,128,0.0,0.0,67,0.00,,,0.00,LWC V2.00 B2112,2013-06-07 16:38:00,
2013-06-07 08:43:00,57.0,46.5,29.78,SE,128,0.0,0.0,68,0.00,,,0.00,LWC V2.00 B2112,2013-06-07 16:43:00,
2013-06-07 08:48:00,56.9,47.6,29.78,SE,128,0.0,0.0,71,0.00,,,0.00,LWC V2.00 B2112,2013-06-07 16:48:00,
2013-06-07 08:53:00,56.8,47.5,29.78,SE,128,0.0,0.0,71,0.00,,,0.00,LWC V2.00 B2112,2013-06-07 16:53:00,
2013-06-07 08:58:00,56.6,45.4,29.78,SE,128,0.0,0.0,66,0.00,,,0.00,LWC V2.00 B2112,2013-06-07 16:58:00,
2013-06-07 09:03:00,56.7,45.1,29.78,SE,128,0.0,0.0,65,0.00,,,0.00,LWC V2.00 B2112,2013-06-07 17:03:00,
2013-06-07 09:08:00,57.1,47.0,29.78,South,172,0.0,0.0,69,0.00,,,0.00,LWC V2.00 B2112,2013-06-07 17:08:00,
2013-06-07 09:13:00,57.7,46.0,29.78,SE,136,1.0,1.0,65,0.00,,,0.00,LWC V2.00 B2112,2013-06-07 17:13:00,
2013-06-07 09:18:00,58.0,46.3,29.78,SE,134,0.0,0.0,65,0.00,,,0.00,LWC V2.00 B2112,2013-06-07 17:18:00,
2013-06-07 09:23:00,58.4,47.5,29.78,ESE,114,0.0,1.0,67,0.00,,,0.00,LWC V2.00 B2112,2013-06-07 17:23:00,
2013-06-07 09:28:00,58.7,44.8,29.78,NW,314,1.0,2.0,60,0.00,,,0.00,LWC V2.00 B2112,2013-06-07 17:28:00,
2013-06-07 09:33:00,59.0,47.2,29.78,ESE,113,0.0,1.0,65,0.00,,,0.00,LWC V2.00 B2112,2013-06-07 17:33:00,
2013-06-07 09:38:00,59.6,47.0,29.78,ESE,121,0.0,1.0,63,0.00,,,0.00,LWC V2.00 B2112,2013-06-07 17:38:00,
2013-06-07 09:43:00,59.7,46.2,29.78,SSW,202,2.0,2.0,61,0.00,,,0.00,LWC V2.00 B2112,2013-06-07 17:43:00,
2013-06-07 09:48:00,59.7,45.8,29.78,WSW,241,0.0,1.0,60,0.00,,,0.00,LWC V2.00 B2112,2013-06-07 17:48:00,
2013-06-07 09:53:00,59.8,45.0,29.78,ESE,122,1.0,3.0,58,0.00,,,0.00,LWC V2.00 B2112,2013-06-07 17:53:00,
2013-06-07 10:03:00,61.2,44.9,29.78,NW,322,2.0,2.0,55,0.00,,,0.00,LWC V2.00 B2112,2013-06-07 18:03:00,
2013-06-07 10:08:00,61.9,46.5,29.78,SW,223,1.0,1.0,57,0.00,,,0.00,LWC V2.00 B2112,2013-06-07 18:08:00,
2013-06-07 10:13:00,62.8,44.4,29.78,SSW,209,0.0,2.0,51,0.00,,,0.00,LWC V2.00 B2112,2013-06-07 18:13:00,
2013-06-07 10:23:00,63.2,45.3,29.78,ENE,68,2.0,3.0,52,0.00,,,0.00,LWC V2.00 B2112,2013-06-07 18:23:00,
2013-06-07 10:28:00,63.7,43.6,29.78,East,90,2.0,5.0,48,0.00,,,0.00,LWC V2.00 B2112,2013-06-07 18:28:00,
2013-06-07 10:33:00,63.7,44.2,29.78,ESE,121,2.0,2.0,49,0.00,,,0.00,LWC V2.00 B2112,2013-06-07 18:33:00,
2013-06-07 10:38:00,64.2,44.6,29.78,ESE,118,1.0,2.0,49,0.00,,,0.00,LWC V2.00 B2112,2013-06-07 18:38:00,
2013-06-07 10:43:00,65.3,45.1,29.78,East,92,1.0,1.0,48,0.00,,,0.00,LWC V2.00 B2112,2013-06-07 18:43:00,
2013-06-07 10:53:00,65.0,41.3,29.78,WNW,284,0.0,1.0,42,0.00,,,0.00,LWC V2.00 B2112,2013-06-07 18:53:00,
2013-06-07 10:58:00,64.0,40.4,29.78,SW,218,1.0,2.0,42,0.00,,,0.00,LWC V2.00 B2112,2013-06-07 18:58:00,
2013-06-07 11:18:00,59.9,46.0,29.79,SW,230,1.0,1.0,60,0.00,,,0.00,LWC V2.00 B2112,2013-06-07 19:18:00,
2013-06-07 11:23:00,59.2,44.4,29.79,ENE,69,1.0,3.0,58,0.00,,,0.00,LWC V2.00 B2112,2013-06-07 19:23:00,
2013-06-07 11:28:00,58.8,44.9,29.79,ESE,110,0.0,1.0,60,0.00,,,0.00,LWC V2.00 B2112,2013-06-07 19:28:00,
2013-06-07 11:33:00,58.4,45.0,29.79,NW,319,0.0,1.0,61,0.00,,,0.00,LWC V2.00 B2112,2013-06-07 19:33:00,
2013-06-07 11:38:00,58.1,44.7,29.79,NW,317,0.0,1.0,61,0.00,,,0.00,LWC V2.00 B2112,2013-06-07 19:38:00,
2013-06-07 11:43:00,58.0,45.5,29.79,NW,312,0.0,1.0,63,0.00,,,0.00,LWC V2.00 B2112,2013-06-07 19:43:00,
2013-06-07 11:53:00,58.2,45.7,29.80,NW,311,0.0,0.0,63,0.00,,,0.00,LWC V2.00 B2112,2013-06-07 19:53:00,
2013-06-07 11:58:00,58.4,44.1,29.80,WSW,242,1.0,2.0,59,0.00,,,0.00,LWC V2.00 B2112,2013-06-07 19:58:00,
2013-06-07 12:03:00,58.5,43.3,29.79,SSW,202,0.0,2.0,57,0.00,,,0.00,LWC V2.00 B2112,2013-06-07 20:03:00,
2013-06-07 12:08:00,58.7,44.4,29.79,NNW,327,1.0,1.0,59,0.00,,,0.00,LWC V2.00 B2112,2013-06-07 20:08:00,
2013-06-07 12:13:00,59.9,46.0,29.79,NNW,329,4.0,4.0,60,0.00,,,0.00,LWC V2.00 B2112,2013-06-07 20:13:00,
2013-06-07 12:18:00,61.7,43.9,29.79,ENE,61,3.0,3.0,52,0.00,,,0.00,LWC V2.00 B2112,2013-06-07 20:18:00,
2013-06-07 12:23:00,63.7,45.7,29.79,ENE,66,1.0,4.0,52,0.00,,,0.00,LWC V2.00 B2112,2013-06-07 20:23:00,
2013-06-07 12:28:00,64.7,43.4,29.79,NW,304,1.0,3.0,46,0.00,,,0.00,LWC V2.00 B2112,2013-06-07 20:28:00,
2013-06-07 12:33:00,64.0,42.8,29.79,WSW,244,3.0,3.0,46,0.00,,,0.00,LWC V2.00 B2112,2013-06-07 20:33:00,
2013-06-07 12:43:00,63.6,44.1,29.79,East,93,2.0,2.0,49,0.00,,,0.00,LWC V2.00 B2112,2013-06-07 20:43:00,
2013-06-07 12:48:00,64.2,44.1,29.79,WNW,303,2.0,2.0,48,0.00,,,0.00,LWC V2.00 B2112,2013-06-07 20:48:00,
2013-06-07 12:53:00,64.5,42.1,29.79,SE,134,2.0,2.0,44,0.00,,,0.00,LWC V2.00 B2112,2013-06-07 20:53:00,
2013-06-07 12:58:00,65.6,43.1,29.79,SE,144,1.0,5.0,44,0.00,,,0.00,LWC V2.00 B2112,2013-06-07 20:58:00,
2013-06-07 13:08:00,66.4,41.3,29.79,SE,139,1.0,2.0,40,0.00,,,0.00,LWC V2.00 B2112,2013-06-07 21:08:00,
2013-06-07 13:13:00,65.9,40.9,29.79,NW,319,1.0,2.0,40,0.00,,,0.00,LWC V2.00 B2112,2013-06-07 21:13:00,
2013-06-07 13:18:00,64.6,41.6,29.79,WSW,241,0.0,3.0,43,0.00,,,0.00,LWC V2.00 B2112,2013-06-07 21:18:00,
2013-06-07 13:23:00,64.7,43.4,29.79,SSE,157,0.0,0.0,46,0.00,,,0.00,LWC V2.00 B2112,2013-06-07 21:23:00,
2013-06-07 13:28:00,65.7,43.2,29.79,East,84,1.0,2.0,44,0.00,,,0.00,LWC V2.00 B2112,2013-06-07 21:28:00,
2013-06-07 13:38:00,65.7,42.6,29.79,SE,134,1.0,3.0,43,0.00,,,0.00,LWC V2.00 B2112,2013-06-07 21:38:00,
2013-06-07 13:43:00,65.6,42.5,29.79,West,280,2.0,3.0,43,0.00,,,0.00,LWC V2.00 B2112,2013-06-07 21:43:00,
2013-06-07 13:53:00,65.0,41.3,29.79,SW,217,0.0,1.0,42,0.00,,,0.00,LWC V2.00 B2112,2013-06-07 21:53:00,
2013-06-07 13:58:00,64.6,43.3,29.79,WSW,253,0.0,1.0,46,0.00,,,0.00,LWC V2.00 B2112,2013-06-07 21:58:00,
2013-06-07 14:08:00,65.3,39.7,29.79,East,81,3.0,3.0,39,0.00,,,0.00,LWC V2.00 B2112,2013-06-07 22:08:00,
2013-06-07 14:13:00,66.1,39.7,29.79,East,95,3.0,3.0,38,0.00,,,0.00,LWC V2.00 B2112,2013-06-07 22:13:00,
2013-06-07 14:18:00,66.2,38.5,29.78,East,86,2.0,5.0,36,0.00,,,0.00,LWC V2.00 B2112,2013-06-07 22:18:00,
2013-06-07 14:23:00,67.0,40.5,29.79,East,94,3.0,6.0,38,0.00,,,0.00,LWC V2.00 B2112,2013-06-07 22:23:00,
2013-06-07 14:28:00,67.6,40.4,29.78,East,91,1.0,2.0,37,0.00,,,0.00,LWC V2.00 B2112,2013-06-07 22:28:00,
2013-06-07 14:33:00,68.4,38.9,29.78,West,269,1.0,2.0,34,0.00,,,0.00,LWC V2.00 B2112,2013-06-07 22:33:00,
2013-06-07 14:38:00,68.8,40.0,29.78,ESE,108,1.0,1.0,35,0.00,,,0.00,LWC V2.00 B2112,2013-06-07 22:38:00,
2013-06-07 14:43:00,68.7,41.4,29.78,SW,226,1.0,2.0,37,0.00,,,0.00,LWC V2.00 B2112,2013-06-07 22:43:00,
2013-06-07 14:48:00,68.5,39.8,29.78,NE,41,0.0,1.0,35,0.00,,,0.00,LWC V2.00 B2112,2013-06-07 22:48:00,
2013-06-07 14:58:00,68.3,42.4,29.78,WSW,254,0.0,0.0,39,0.00,,,0.00,LWC V2.00 B2112,2013-06-07 22:58:00,
2013-06-07 15:03:00,68.5,42.6,29.78,ESE,120,1.0,1.0,39,0.00,,,0.00,LWC V2.00 B2112,2013-06-07 23:03:00,
2013-06-07 15:08:00,69.2,43.2,29.78,ENE,74,0.0,2.0,39,0.00,,,0.00,LWC V2.00 B2112,2013-06-07 23:08:00,
2013-06-07 15:13:00,69.2,43.2,29.78,ESE,111,1.0,2.0,39,0.00,,,0.00,LWC V2.00 B2112,2013-06-07 23:13:00,
2013-06-07 15:18:00,68.7,40.7,29.78,NNE,22,0.0,3.0,36,0.00,,,0.00,LWC V2.00 B2112,2013-06-07 23:18:00,
2013-06-07 15:23:00,67.7,41.2,29.78,ENE,76,0.0,3.0,38,0.00,,,0.00,LWC V2.00 B2112,2013-06-07 23:23:00,
2013-06-07 15:28:00,66.9,41.8,29.78,WNW,300,0.0,0.0,40,0.00,,,0.00,LWC V2.00 B2112,2013-06-07 23:28:00,
2013-06-07 15:33:00,66.3,41.2,29.78,NNW,348,0.0,2.0,40,0.00,,,0.00,LWC V2.00 B2112,2013-06-07 23:33:00,
2013-06-07 15:43:00,66.5,43.3,29.78,SSE,162,0.0,0.0,43,0.00,,,0.00,LWC V2.00 B2112,2013-06-07 23:43:00,
2013-06-07 15:48:00,66.6,40.9,29.78,NE,51,0.0,2.0,39,0.00,,,0.00,LWC V2.00 B2112,2013-06-07 23:48:00,
2013-06-07 15:58:00,66.7,41.6,29.78,ESE,109,0.0,1.0,40,0.00,,,0.00,LWC V2.00 B2112,2013-06-07 23:58:00,
2013-06-07 16:08:00,66.7,42.2,29.78,NW,310,0.0,0.0,41,0.00,,,0.00,LWC V2.00 B2112,2013-06-08 00:08:00,
2013-06-07 16:13:00,66.2,42.4,29.78,NW,310,0.0,0.0,42,0.00,,,0.00,LWC V2.00 B2112,2013-06-08 00:13:00,
2013-06-07 16:23:00,65.2,42.1,29.78,NW,310,0.0,0.0,43,0.00,,,0.00,LWC V2.00 B2112,2013-06-08 00:23:00,
2013-06-07 16:28:00,64.9,41.9,29.78,NW,310,0.0,0.0,43,0.00,,,0.00,LWC V2.00 B2112,2013-06-08 00:28:00,
2013-06-07 16:33:00,64.6,43.9,29.78,NW,309,0.0,0.0,47,0.00,,,0.00,LWC V2.00 B2112,2013-06-08 00:33:00,
2013-06-07 16:38:00,64.4,42.6,29.78,NW,310,0.0,0.0,45,0.00,,,0.00,LWC V2.00 B2112,2013-06-08 00:38:00,
2013-06-07 16:43:00,64.3,41.3,29.78,NW,310,0.0,0.0,43,0.00,,,0.00,LWC V2.00 B2112,2013-06-08 00:43:00,
2013-06-07 16:48:00,64.3,41.3,29.77,NW,310,0.0,0.0,43,0.00,,,0.00,LWC V2.00 B2112,2013-06-08 00:48:00,
2013-06-07 16:53:00,64.2,44.1,29.77,NW,310,0.0,0.0,48,0.00,,,0.00,LWC V2.00 B2112,2013-06-08 00:53:00,
2013-06-07 16:58:00,64.1,40.5,29.77,NW,310,0.0,0.0,42,0.00,,,0.00,LWC V2.00 B2112,2013-06-08 00:58:00,
2013-06-07 17:03:00,64.0,42.2,29.77,NW,310,0.0,0.0,45,0.00,,,0.00,LWC V2.00 B2112,2013-06-08 01:03:00,
2013-06-07 17:08:00,64.1,42.9,29.77,NW,310,0.0,0.0,46,0.00,,,0.00,LWC V2.00 B2112,2013-06-08 01:08:00,
2013-06-07 17:13:00,64.2,45.2,29.77,NW,310,0.0,0.0,50,0.00,,,0.00,LWC V2.00 B2112,2013-06-08 01:13:00,
2013-06-07 17:18:00,64.5,43.8,29.77,SE,134,1.0,2.0,47,0.00,,,0.00,LWC V2.00 B2112,2013-06-08 01:18:00,
2013-06-07 17:23:00,64.6,42.8,29.78,SE,130,0.0,1.0,45,0.00,,,0.00,LWC V2.00 B2112,2013-06-08 01:23:00,
2013-06-07 17:28:00,64.8,42.4,29.78,SSE,157,0.0,0.0,44,0.00,,,0.00,LWC V2.00 B2112,2013-06-08 01:28:00,
2013-06-07 17:33:00,64.8,42.4,29.78,ESE,120,0.0,1.0,44,0.00,,,0.00,LWC V2.00 B2112,2013-06-08 01:33:00,
2013-06-07 17:43:00,64.6,41.6,29.78,WSW,250,1.0,4.0,43,0.00,,,0.00,LWC V2.00 B2112,2013-06-08 01:43:00,
2013-06-07 17:48:00,64.5,42.7,29.78,SW,220,0.0,0.0,45,0.00,,,0.00,LWC V2.00 B2112,2013-06-08 01:48:00,
2013-06-07 17:58:00,65.5,44.2,29.78,WSW,249,1.0,1.0,46,0.00,,,0.00,LWC V2.00 B2112,2013-06-08 01:58:00,
2013-06-07 18:03:00,65.8,42.1,29.78,East,88,0.0,1.0,42,0.00,,,0.00,LWC V2.00 B2112,2013-06-08 02:03:00,
2013-06-07 18:08:00,66.3,41.2,29.78,ESE,105,0.0,0.0,40,0.00,,,0.00,LWC V2.00 B2112,2013-06-08 02:08:00,
2013-06-07 18:13:00,66.4,41.3,29.78,ENE,69,1.0,2.0,40,0.00,,,0.00,LWC V2.00 B2112,2013-06-08 02:13:00,
2013-06-07 18:18:00,66.2,41.8,29.78,ENE,74,1.0,1.0,41,0.00,,,0.00,LWC V2.00 B2112,2013-06-08 02:18:00,
2013-06-07 18:23:00,65.7,43.8,29.78,ESE,103,0.0,1.0,45,0.00,,,0.00,LWC V2.00 B2112,2013-06-08 02:23:00,
2013-06-07 18:28:00,65.4,44.1,29.78,SSE,153,0.0,0.0,46,0.00,,,0.00,LWC V2.00 B2112,2013-06-08 02:28:00,
2013-06-07 18:38:00,66.0,42.9,29.78,East,86,1.0,2.0,43,0.00,,,0.00,LWC V2.00 B2112,2013-06-08 02:38:00,
2013-06-07 18:43:00,66.4,43.2,29.78,ESE,115,1.0,3.0,43,0.00,,,0.00,LWC V2.00 B2112,2013-06-08 02:43:00,
2013-06-07 18:48:00,66.3,43.1,29.78,NW,307,2.0,3.0,43,0.00,,,0.00,LWC V2.00 B2112,2013-06-08 02:48:00,
2013-06-07 18:53:00,65.8,43.3,29.78,SSE,161,0.0,1.0,44,0.00,,,0.00,LWC V2.00 B2112,2013-06-08 02:53:00,
2013-06-07 18:58:00,65.3,43.4,29.78,West,261,0.0,0.0,45,0.00,,,0.00,LWC V2.00 B2112,2013-06-08 02:58:00,
2013-06-07 19:03:00,64.9,43.6,29.78,West,261,0.0,0.0,46,0.00,,,0.00,LWC V2.00 B2112,2013-06-08 03:03:00,
2013-06-07 19:08:00,64.6,43.3,29.78,ESE,117,1.0,2.0,46,0.00,,,0.00,LWC V2.00 B2112,2013-06-08 03:08:00,
2013-06-07 19:13:00,64.4,44.3,29.78,ESE,106,0.0,0.0,48,0.00,,,0.00,LWC V2.00 B2112,2013-06-08 03:13:00,
2013-06-07 19:18:00,64.1,45.1,29.78,ESE,106,0.0,0.0,50,0.00,,,0.00,LWC V2.00 B2112,2013-06-08 03:18:00,
2013-06-07 19:23:00,63.8,45.8,29.78,ESE,107,0.0,0.0,52,0.00,,,0.00,LWC V2.00 B2112,2013-06-08 03:23:00,
2013-06-07 19:33:00,63.3,44.9,29.78,ESE,119,0.0,0.0,51,0.00,,,0.00,LWC V2.00 B2112,2013-06-08 03:33:00,
2013-06-07 19:38:00,63.2,44.2,29.78,ESE,119,0.0,0.0,50,0.00,,,0.00,LWC V2.00 B2112,2013-06-08 03:38:00,
2013-06-07 19:43:00,63.1,44.2,29.78,ESE,119,0.0,0.0,50,0.00,,,0.00,LWC V2.00 B2112,2013-06-08 03:43:00,
2013-06-07 19:48:00,63.1,44.2,29.78,ESE,118,0.0,0.0,50,0.00,,,0.00,LWC V2.00 B2112,2013-06-08 03:48:00,
2013-06-07 19:53:00,63.3,45.9,29.78,ESE,118,0.0,0.0,53,0.00,,,0.00,LWC V2.00 B2112,2013-06-08 03:53:00,
2013-06-07 19:58:00,63.3,44.9,29.78,South,175,0.0,0.0,51,0.00,,,0.00,LWC V2.00 B2112,2013-06-08 03:58:00,
2013-06-07 20:03:00,63.4,42.8,29.78,SSE,157,0.0,0.0,47,0.00,,,0.00,LWC V2.00 B2112,2013-06-08 04:03:00,
2013-06-07 20:08:00,63.5,44.5,29.78,SSE,159,0.0,0.0,50,0.00,,,0.00,LWC V2.00 B2112,2013-06-08 04:08:00,
2013-06-07 20:13:00,63.5,46.6,29.78,SSW,211,0.0,1.0,54,0.00,,,0.00,LWC V2.00 B2112,2013-06-08 04:13:00,
2013-06-07 20:18:00,63.5,46.6,29.78,WSW,249,0.0,0.0,54,0.00,,,0.00,LWC V2.00 B2112,2013-06-08 04:18:00,
2013-06-07 20:23:00,63.5,43.5,29.78,WSW,252,0.0,0.0,48,0.00,,,0.00,LWC V2.00 B2112,2013-06-08 04:23:00,
2013-06-07 20:28:00,63.6,43.5,29.78,West,273,0.0,1.0,48,0.00,,,0.00,LWC V2.00 B2112,2013-06-08 04:28:00,
2013-06-07 20:33:00,63.5,45.0,29.78,SSW,198,0.0,1.0,51,0.00,,,0.00,LWC V2.00 B2112,2013-06-08 04:33:00,
2013-06-07 20:38:00,63.1,44.2,29.79,SSW,198,1.0,1.0,50,0.00,,,0.00,LWC V2.00 B2112,2013-06-08 04:38:00,
2013-06-07 20:43:00,62.8,46.4,29.79,SSW,198,0.0,0.0,55,0.00,,,0.00,LWC V2.00 B2112,2013-06-08 04:43:00,
2013-06-07 20:48:00,62.4,45.0,29.79,SSW,198,0.0,0.0,53,0.00,,,0.00,LWC V2.00 B2112,2013-06-08 04:48:00,
2013-06-07 20:53:00,62.0,45.6,29.79,SSW,198,0.0,0.0,55,0.00,,,0.00,LWC V2.00 B2112,2013-06-08 04:53:00,
2013-06-07 20:58:00,61.6,44.3,29.79,SSW,198,0.0,0.0,53,0.00,,,0.00,LWC V2.00 B2112,2013-06-08 04:58:00,
2013-06-07 21:03:00,61.3,46.4,29.79,SSW,198,0.0,0.0,58,0.00,,,0.00,LWC V2.00 B2112,2013-06-08 05:03:00,
2013-06-07 21:08:00,60.9,46.0,29.79,SSW,209,0.0,0.0,58,0.00,,,0.00,LWC V2.00 B2112,2013-06-08 05:08:00,
2013-06-07 21:13:00,60.4,44.2,29.79,WSW,253,1.0,2.0,55,0.00,,,0.00,LWC V2.00 B2112,2013-06-08 05:13:00,
2013-06-07 21:18:00,60.3,44.5,29.79,WSW,248,0.0,0.0,56,0.00,,,0.00,LWC V2.00 B2112,2013-06-08 05:18:00,
2013-06-07 21:23:00,59.9,46.0,29.79,WSW,248,1.0,1.0,60,0.00,,,0.00,LWC V2.00 B2112,2013-06-08 05:23:00,
2013-06-07 21:28:00,59.3,45.8,29.79,WSW,247,0.0,0.0,61,0.00,,,0.00,LWC V2.00 B2112,2013-06-08 05:28:00,
2013-06-07 21:33:00,58.8,45.4,29.79,WSW,248,0.0,0.0,61,0.00,,,0.00,LWC V2.00 B2112,2013-06-08 05:33:00,
2013-06-07 21:38:00,58.6,45.2,29.79,WSW,248,0.0,0.0,61,0.00,,,0.00,LWC V2.00 B2112,2013-06-08 05:38:00,
2013-06-07 21:43:00,58.5,45.5,29.80,WSW,248,0.0,0.0,62,0.00,,,0.00,LWC V2.00 B2112,2013-06-08 05:43:00,
2013-06-07 21:48:00,58.2,45.7,29.80,WSW,248,0.0,0.0,63,0.00,,,0.00,LWC V2.00 B2112,2013-06-08 05:48:00,
2013-06-07 21:53:00,58.0,45.1,29.80,WSW,248,0.0,0.0,62,0.00,,,0.00,LWC V2.00 B2112,2013-06-08 05:53:00,
2013-06-07 21:58:00,57.9,45.8,29.80,WSW,247,0.0,0.0,64,0.00,,,0.00,LWC V2.00 B2112,2013-06-08 05:58:00,
2013-06-07 22:03:00,57.7,46.4,29.80,WSW,247,0.0,0.0,66,0.00,,,0.00,LWC V2.00 B2112,2013-06-08 06:03:00,
2013-06-07 22:08:00,57.4,46.5,29.80,WSW,248,0.0,0.0,67,0.00,,,0.00,LWC V2.00 B2112,2013-06-08 06:08:00,
2013-06-07 22:13:00,57.2,46.7,29.80,WSW,248,0.0,0.0,68,0.00,,,0.00,LWC V2.00 B2112,2013-06-08 06:13:00,
2013-06-07 22:18:00,57.0,45.8,29.80,WSW,248,0.0,0.0,66,0.00,,,0.00,LWC V2.00 B2112,2013-06-08 06:18:00,
2013-06-07 22:23:00,56.9,44.8,29.80,WSW,248,0.0,0.0,64,0.00,,,0.00,LWC V2.00 B2112,2013-06-08 06:23:00,
2013-06-07 22:28:00,56.7,45.9,29.81,WSW,248,0.0,0.0,67,0.00,,,0.00,LWC V2.00 B2112,2013-06-08 06:28:00,
2013-06-07 22:33:00,56.7,45.9,29.81,WSW,248,0.0,0.0,67,0.00,,,0.00,LWC V2.00 B2112,2013-06-08 06:33:00,
2013-06-07 22:38:00,56.5,45.3,29.81,WSW,248,0.0,0.0,66,0.00,,,0.00,LWC V2.00 B2112,2013-06-08 06:38:00,
2013-06-07 22:43:00,56.4,45.2,29.81,WSW,248,0.0,0.0,66,0.00,,,0.00,LWC V2.00 B2112,2013-06-08 06:43:00,
2013-06-07 22:48:00,56.4,46.0,29.81,WSW,248,0.0,0.0,68,0.00,,,0.00,LWC V2.00 B2112,2013-06-08 06:48:00,
2013-06-07 22:53:00,56.3,46.3,29.81,WSW,248,0.0,0.0,69,0.00,,,0.00,LWC V2.00 B2112,2013-06-08 06:53:00,
2013-06-07 22:58:00,56.3,46.3,29.82,WSW,248,0.0,0.0,69,0.00,,,0.00,LWC V2.00 B2112,2013-06-08 06:58:00,
2013-06-07 23:03:00,56.4,46.0,29.82,WSW,248,1.0,1.0,68,0.00,,,0.00,LWC V2.00 B2112,2013-06-08 07:03:00,
2013-06-07 23:08:00,56.4,46.0,29.82,WSW,248,1.0,1.0,68,0.00,,,0.00,LWC V2.00 B2112,2013-06-08 07:08:00,
2013-06-07 23:13:00,56.5,45.7,29.82,WSW,257,1.0,1.0,67,0.00,,,0.00,LWC V2.00 B2112,2013-06-08 07:13:00,
2013-06-07 23:18:00,56.5,45.3,29.82,WSW,257,1.0,1.0,66,0.00,,,0.00,LWC V2.00 B2112,2013-06-08 07:18:00,
2013-06-07 23:23:00,56.3,45.5,29.82,WSW,257,0.0,1.0,67,0.00,,,0.00,LWC V2.00 B2112,2013-06-08 07:23:00,
2013-06-07 23:28:00,56.0,45.2,29.82,WSW,257,0.0,0.0,67,0.00,,,0.00,LWC V2.00 B2112,2013-06-08 07:28:00,
2013-06-07 23:33:00,55.8,45.4,29.82,WSW,257,0.0,1.0,68,0.00,,,0.00,LWC V2.00 B2112,2013-06-08 07:33:00,
2013-06-07 23:38:00,55.7,44.5,29.83,WSW,257,1.0,1.0,66,0.00,,,0.00,LWC V2.00 B2112,2013-06-08 07:38:00,
2013-06-07 23:43:00,55.6,45.6,29.83,WSW,257,0.0,1.0,69,0.00,,,0.00,LWC V2.00 B2112,2013-06-08 07:43:00,
2013-06-07 23:48:00,55.6,44.8,29.83,WSW,257,0.0,0.0,67,0.00,,,0.00,LWC V2.00 B2112,2013-06-08 07:48:00,
2013-06-07 23:53:00,55.5,45.5,29.83,WSW,257,0.0,0.0,69,0.00,,,0.00,LWC V2.00 B2112,2013-06-08 07:53:00,
2013-06-07 23:58:00,55.3,45.3,29.83,WSW,257,0.0,0.0,69,0.00,,,0.00,LWC V2.00 B2112,2013-06-08 07:58:00,